Mount Low, Australia

6:53 PM AEST on September 25, 2017 (GMT +1000)
Mount Low

Weather History for 94294 - October, 2013

Change the Weather History Date:

Wednesday, October 9, 2013

  Actual Average Record
Temperature  
Mean Temperature 74 °F -  
Max Temperature 86 °F 86 °F - ()
Min Temperature 63 °F 70 °F - ()
Cooling Degree Days 10    
Growing Degree Days 24 (Base 50)    
Moisture  
Dew Point 67 °F    
Average Humidity 72    
Maximum Humidity 100    
Minimum Humidity 45    
Precipitation  
Precipitation 0.00 in 0.04 in - ()
Sea Level Pressure  
Sea Level Pressure 29.97 in    
Wind  
Wind Speed 8 mph ()    
Max Wind Speed 24 mph    
Max Gust Speed -    
Visibility 6.6 miles    
Events Fog    
T = Trace of Precipitation, MM = Missing Value Source: Averaged Metar Reports

Daily Weather History Graph

Daily Weather History Graph

Search for Another Location

Airport or City:

Trip Planner

Search our weather history database for the weather conditions in past years. The results will help you decide how hot, cold, wet, or windy it might be!

Date:

Astronomy

Oct. 09, 2013 Rise Set
Actual Time 5:48 AM AEST 6:12 PM AEST
Civil Twilight 5:26 AM AEST 6:34 PM AEST
Nautical Twilight 5:00 AM AEST 7:00 PM AEST
Astronomical Twilight 4:34 AM AEST 7:26 PM AEST
Moon 8:54 AM AEST (10/9) 10:19 PM AEST (10/9)
Length of Visible Light 13h 08m
Length of Day
12h 24m
Waxing Crescent, 19% of the Moon is Illuminated
Oct 9
Waxing Crescent
Oct 12
First Quarter
Oct 19
Full
Oct 27
Last Quarter
Nov 3
New

Hourly Weather History & Observations

Time (AEST) Temp. Heat Index Dew Point Humidity Pressure Visibility Wind Dir Wind Speed Gust Speed Precip Events Conditions
12:00 AM 72 °F - 69 °F 88% 29.92 in - North 2.3 mph - -  
12:00 AM 73.4 °F - 69.8 °F 88% 29.92 in 6.2 mi North 2.3 mph - N/A   Unknown
12:30 AM 73.4 °F - 69.8 °F 88% 29.89 in 6.2 mi NE 5.8 mph - N/A   Unknown
1:00 AM 71 °F - 68 °F 87% 29.92 in - North 2.3 mph - -  
1:00 AM 71.6 °F - 68.0 °F 88% 29.89 in 6.2 mi North 2.3 mph - N/A   Unknown
1:30 AM 69.8 °F - 68.0 °F 94% 29.89 in 6.2 mi Calm Calm - N/A   Unknown
2:00 AM 71.6 °F - 69.8 °F 94% 29.89 in 6.2 mi SSW 1.2 mph - N/A   Unknown
2:30 AM 71.6 °F - 68.0 °F 88% 29.89 in 6.2 mi Calm Calm - N/A   Unknown
3:00 AM 71 °F - 68 °F 89% 29.90 in - SSE 5.8 mph - -  
3:00 AM 71.6 °F - 68.0 °F 88% 29.89 in 6.2 mi SSE 5.8 mph - N/A   Scattered Clouds
3:30 AM 71.6 °F - 68.0 °F 88% 29.89 in 6.2 mi South 5.8 mph - N/A   Unknown
4:00 AM 67 °F - 65 °F 89% 29.91 in - Calm Calm - -  
4:00 AM 66.2 °F - 64.4 °F 94% 29.89 in 6.2 mi Calm Calm - N/A   Unknown
4:30 AM 68.0 °F - 66.2 °F 94% 29.89 in 6.2 mi Calm Calm - N/A   Unknown
4:45 AM 64.4 °F - 62.6 °F 94% 29.92 in 3.7 mi SSW 1.2 mph - N/A   Unknown
4:51 AM 64.4 °F - 62.6 °F 94% 29.92 in 0.4 mi Calm Calm - N/A   Unknown
5:00 AM 62.6 °F - 62.6 °F 100% 29.92 in 0.4 mi Calm Calm - N/A   Unknown
5:02 AM 62.6 °F - 62.6 °F 100% 29.92 in 0.7 mi Calm Calm - N/A   Unknown
5:20 AM 64.4 °F - 64.4 °F 100% 29.92 in 6.2 mi West 4.6 mph - N/A   Unknown
5:30 AM 64.4 °F - 64.4 °F 100% 29.92 in 6.2 mi West 3.5 mph - N/A   Unknown
6:00 AM 65 °F - 65 °F 98% 29.95 in 16 mi Calm Calm - - Fog Patches of Fog
6:00 AM 66.2 °F - 64.4 °F 94% 29.95 in 6.2 mi Calm Calm - N/A Fog Patches of Fog
6:30 AM 66.2 °F - 64.4 °F 94% 29.95 in 6.2 mi Calm Calm - N/A   Partly Cloudy
7:00 AM 71 °F - 68 °F 87% 29.99 in - Calm Calm - -  
7:00 AM 71.6 °F - 68.0 °F 88% 29.98 in 6.2 mi Calm Calm - N/A   Partly Cloudy
7:30 AM 75.2 °F - 69.8 °F 83% 29.98 in 6.2 mi SE 6.9 mph - N/A   Mostly Cloudy
8:00 AM 77.0 °F - 68.0 °F 74% 30.01 in 6.2 mi ESE 10.4 mph - N/A   Partly Cloudy
8:30 AM 80.6 °F 82.7 °F 66.2 °F 61% 30.01 in 6.2 mi SSE 8.1 mph - N/A   Partly Cloudy
9:00 AM 81 °F - 65 °F 49% 30.02 in 16 mi SE 5.8 mph - -   Haze
9:00 AM 80.6 °F 82.3 °F 64.4 °F 58% 30.01 in 6.2 mi SE 5.8 mph - N/A   Partly Cloudy
9:30 AM 84.2 °F 86.6 °F 66.2 °F 55% 30.01 in 6.2 mi SE 5.8 mph - N/A   Partly Cloudy
10:00 AM 83 °F - 65 °F 45% 30.02 in - ESE 9.2 mph - -  
10:00 AM 82.4 °F 83.9 °F 64.4 °F 54% 30.01 in 6.2 mi ESE 9.2 mph - N/A   Partly Cloudy
10:30 AM 86.0 °F 88.2 °F 66.2 °F 51% 30.01 in 6.2 mi NE 15.0 mph - N/A   Partly Cloudy
11:00 AM 86.0 °F 86.6 °F 62.6 °F 45% 30.01 in 6.2 mi NE 15.0 mph - N/A   Partly Cloudy
11:30 AM 84.2 °F 87.3 °F 68.0 °F 58% 29.98 in 6.2 mi ENE 19.6 mph - N/A   Partly Cloudy
12:00 PM 85 °F - 69 °F 49% 29.99 in 19 mi ENE 24.2 mph - -   Haze
12:00 PM 84.2 °F 87.3 °F 68.0 °F 58% 29.98 in 6.2 mi ENE 24.2 mph - N/A   Partly Cloudy
12:30 PM 84.2 °F 86.6 °F 66.2 °F 55% 29.98 in 6.2 mi ENE 24.2 mph - N/A   Partly Cloudy
1:00 PM 85 °F - 67 °F 46% 29.99 in - ENE 23.0 mph - -  
1:00 PM 84.2 °F 87.3 °F 68.0 °F 58% 29.98 in 6.2 mi ENE 23.0 mph - N/A   Partly Cloudy
1:30 PM 84.2 °F 87.3 °F 68.0 °F 58% 29.95 in 6.2 mi ENE 23.0 mph - N/A   Partly Cloudy
2:00 PM 84.2 °F 87.3 °F 68.0 °F 58% 29.95 in 6.2 mi ENE 23.0 mph - N/A   Partly Cloudy
2:30 PM 84.2 °F 87.3 °F 68.0 °F 58% 29.95 in 6.2 mi ENE 23.0 mph - N/A   Partly Cloudy
3:00 PM 83 °F - 67 °F 50% 29.96 in 16 mi ENE 21.9 mph - -   Haze
3:00 PM 82.4 °F 85.4 °F 68.0 °F 62% 29.95 in 6.2 mi ENE 21.9 mph - N/A   Partly Cloudy
3:30 PM 84.2 °F 86.6 °F 66.2 °F 55% 29.95 in 6.2 mi ENE 24.2 mph - N/A   Partly Cloudy
4:00 PM 82 °F - 67 °F 51% 29.97 in - East 24.2 mph - -  
4:00 PM 82.4 °F 84.6 °F 66.2 °F 58% 29.95 in 6.2 mi East 24.2 mph - N/A   Partly Cloudy
4:30 PM 80.6 °F 82.7 °F 66.2 °F 61% 29.95 in 6.2 mi ENE 20.7 mph - N/A   Partly Cloudy
5:00 PM 80.6 °F 83.2 °F 68.0 °F 65% 29.98 in 6.2 mi ENE 20.7 mph - N/A   Scattered Clouds
5:30 PM 78.8 °F - 68.0 °F 69% 29.98 in 6.2 mi East 19.6 mph - N/A   Scattered Clouds
6:00 PM 78 °F - 68 °F 63% 29.99 in - East 18.4 mph - -  
6:00 PM 78.8 °F - 68.0 °F 69% 29.98 in 6.2 mi East 18.4 mph - N/A   Scattered Clouds
6:30 PM 78.8 °F - 66.2 °F 65% 30.01 in 6.2 mi ENE 17.3 mph - N/A   Scattered Clouds
7:00 PM 77 °F - 66 °F 60% 30.02 in - East 19.6 mph - -  
7:00 PM 77.0 °F - 66.2 °F 69% 30.01 in 6.2 mi East 19.6 mph - N/A   Scattered Clouds
7:30 PM 77.0 °F - 66.2 °F 69% 30.01 in 6.2 mi East 16.1 mph - N/A   Scattered Clouds
8:00 PM 77.0 °F - 66.2 °F 69% 30.04 in 6.2 mi East 17.3 mph - N/A   Unknown
8:30 PM 77.0 °F - 66.2 °F 69% 30.04 in 6.2 mi East 17.3 mph - N/A   Scattered Clouds
9:00 PM 77 °F - 65 °F 58% 30.05 in - East 17.3 mph - -  
9:00 PM 77.0 °F - 64.4 °F 65% 30.04 in 6.2 mi East 17.3 mph - N/A   Scattered Clouds
9:30 PM 77.0 °F - 66.2 °F 69% 30.04 in 6.2 mi East 16.1 mph - N/A   Scattered Clouds
10:00 PM 77 °F - 66 °F 60% 30.07 in - East 17.3 mph - -  
10:00 PM 77.0 °F - 66.2 °F 69% 30.04 in 6.2 mi East 17.3 mph - N/A   Scattered Clouds
10:30 PM 77.0 °F - 66.2 °F 69% 30.04 in 6.2 mi East 17.3 mph - N/A   Scattered Clouds
11:00 PM 77.0 °F - 66.2 °F 69% 30.06 in 6.2 mi East 16.1 mph - N/A   Scattered Clouds
11:30 PM 77.0 °F - 66.2 °F 69% 30.06 in 6.2 mi East 15.0 mph - N/A   Scattered Clouds